owner,sensor,date,latitude,longitude,vertical_datum,sea_water_practical_salinity,qcFlag 
SCCF RECON,ioos:station:SCCF:53:1,2009-03-01T00:00:00Z,26.6493,-81.8810,2.28,15.23,1111122 
SCCF RECON,ioos:station:SCCF:53:1,2009-03-01T01:00:00Z,26.6493,-81.8810,2.223,15.19,1111122 
SCCF RECON,ioos:station:SCCF:53:1,2009-03-01T02:00:00Z,26.6493,-81.8810,2.17,14.85,1111122 
SCCF RECON,ioos:station:SCCF:53:1,2009-03-01T03:00:00Z,26.6493,-81.8810,2.117,14.27,1111122 
SCCF RECON,ioos:station:SCCF:53:1,2009-03-01T04:00:00Z,26.6493,-81.8810,2.06,13.7,1111122 
SCCF RECON,ioos:station:SCCF:53:1,2009-03-01T05:00:00Z,26.6493,-81.8810,2.01,13.54,1111122 
SCCF RECON,ioos:station:SCCF:53:1,2009-03-01T06:00:00Z,26.6493,-81.8810,1.975,13.14,1111122 
SCCF RECON,ioos:station:SCCF:53:1,2009-03-01T07:00:00Z,26.6493,-81.8810,2.001,13.37,1111122 
SCCF RECON,ioos:station:SCCF:53:1,2009-03-01T08:00:00Z,26.6493,-81.8810,2.044,14.11,1111122 
SCCF RECON,ioos:station:SCCF:53:1,2009-03-01T09:00:00Z,26.6493,-81.8810,2.088,13.78,1111122 
SCCF RECON,ioos:station:SCCF:53:1,2009-03-01T10:00:00Z,26.6493,-81.8810,2.14,14.2,1111122 
SCCF RECON,ioos:station:SCCF:53:1,2009-03-01T11:00:00Z,26.6493,-81.8810,2.185,14.5,1111122 
SCCF RECON,ioos:station:SCCF:53:1,2009-03-01T12:00:00Z,26.6493,-81.8810,2.206,14.62,1111122 
SCCF RECON,ioos:station:SCCF:53:1,2009-03-01T13:00:00Z,26.6493,-81.8810,2.205,14.59,1111122 
SCCF RECON,ioos:station:SCCF:53:1,2009-03-01T14:00:00Z,26.6493,-81.8810,2.175,14.46,1111122 
SCCF RECON,ioos:station:SCCF:53:1,2009-03-01T15:00:00Z,26.6493,-81.8810,2.14,13.92,1111122 
SCCF RECON,ioos:station:SCCF:53:1,2009-03-01T16:00:00Z,26.6493,-81.8810,2.106,13.64,1111122 
SCCF RECON,ioos:station:SCCF:53:1,2009-03-01T17:00:00Z,26.6493,-81.8810,2.119,13.76,1111122 
SCCF RECON,ioos:station:SCCF:53:1,2009-03-01T18:00:00Z,26.6493,-81.8810,2.172,13.66,1111122 
SCCF RECON,ioos:station:SCCF:53:1,2009-03-01T19:00:00Z,26.6493,-81.8810,2.199,13.54,1111122 
SCCF RECON,ioos:station:SCCF:53:1,2009-03-01T20:00:00Z,26.6493,-81.8810,2.208,14.12,1111122 
SCCF RECON,ioos:station:SCCF:53:1,2009-03-01T21:00:00Z,26.6493,-81.8810,2.222,14.38,1111122 
SCCF RECON,ioos:station:SCCF:53:1,2009-03-01T22:00:00Z,26.6493,-81.8810,2.259,14.55,1111122 
SCCF RECON,ioos:station:SCCF:53:1,2009-03-01T23:00:00Z,26.6493,-81.8810,2.264,14.87,1111122 
SCCF RECON,ioos:station:SCCF:53:1,2009-03-02T00:00:00Z,26.6493,-81.8810,2.249,14.8,1111122 
SCCF RECON,ioos:station:SCCF:53:1,2009-03-02T01:00:00Z,26.6493,-81.8810,2.213,14.19,1111122 
SCCF RECON,ioos:station:SCCF:53:1,2009-03-02T02:00:00Z,26.6493,-81.8810,2.173,13.85,1111122 
SCCF RECON,ioos:station:SCCF:53:1,2009-03-02T03:00:00Z,26.6493,-81.8810,2.126,13.46,1111122 
SCCF RECON,ioos:station:SCCF:53:1,2009-03-02T04:00:00Z,26.6493,-81.8810,2.074,13.28,1111122 
SCCF RECON,ioos:station:SCCF:53:1,2009-03-02T05:00:00Z,26.6493,-81.8810,2.033,12.86,1111122 
SCCF RECON,ioos:station:SCCF:53:1,2009-03-02T06:00:00Z,26.6493,-81.8810,1.984,12.91,1111122 
SCCF RECON,ioos:station:SCCF:53:1,2009-03-02T07:00:00Z,26.6493,-81.8810,1.953,12.47,1111122 
SCCF RECON,ioos:station:SCCF:53:1,2009-03-02T08:00:00Z,26.6493,-81.8810,1.93,12.32,1111122 
SCCF RECON,ioos:station:SCCF:53:1,2009-03-02T09:00:00Z,26.6493,-81.8810,1.91,12.19,1111122 
SCCF RECON,ioos:station:SCCF:53:1,2009-03-02T10:00:00Z,26.6493,-81.8810,1.89,12.04,1111122 
SCCF RECON,ioos:station:SCCF:53:1,2009-03-02T11:00:00Z,26.6493,-81.8810,1.86,11.71,1111122 
SCCF RECON,ioos:station:SCCF:53:1,2009-03-02T12:00:00Z,26.6493,-81.8810,1.851,11.59,1111122 
SCCF RECON,ioos:station:SCCF:53:1,2009-03-02T13:00:00Z,26.6493,-81.8810,1.84,11.54,1111122 
SCCF RECON,ioos:station:SCCF:53:1,2009-03-02T14:00:00Z,26.6493,-81.8810,1.82,11.46,1111122 
SCCF RECON,ioos:station:SCCF:53:1,2009-03-02T15:00:00Z,26.6493,-81.8810,1.809,11.37,1111122 
SCCF RECON,ioos:station:SCCF:53:1,2009-03-02T16:00:00Z,26.6493,-81.8810,1.81,11.44,1111122 
SCCF RECON,ioos:station:SCCF:53:1,2009-03-02T17:00:00Z,26.6493,-81.8810,1.819,11.82,1111122 
SCCF RECON,ioos:station:SCCF:53:1,2009-03-02T18:00:00Z,26.6493,-81.8810,1.843,11.86,1111122 
SCCF RECON,ioos:station:SCCF:53:1,2009-03-02T19:00:00Z,26.6493,-81.8810,1.885,12.21,1111122 
SCCF RECON,ioos:station:SCCF:53:1,2009-03-02T20:00:00Z,26.6493,-81.8810,1.93,12.9,1111122 
SCCF RECON,ioos:station:SCCF:53:1,2009-03-02T21:00:00Z,26.6493,-81.8810,1.989,13.83,1111122 
SCCF RECON,ioos:station:SCCF:53:1,2009-03-02T22:00:00Z,26.6493,-81.8810,2.048,14.2,1111122 
SCCF RECON,ioos:station:SCCF:53:1,2009-03-02T23:00:00Z,26.6493,-81.8810,2.101,14.28,1111122 
SCCF RECON,ioos:station:SCCF:53:1,2009-03-03T00:00:00Z,26.6493,-81.8810,2.14,14.48,1111122 
SCCF RECON,ioos:station:SCCF:53:1,2009-03-03T01:00:00Z,26.6493,-81.8810,2.14,14.47,1111122 
SCCF RECON,ioos:station:SCCF:53:1,2009-03-03T02:00:00Z,26.6493,-81.8810,2.11,13.95,1111122 
SCCF RECON,ioos:station:SCCF:53:1,2009-03-03T03:00:00Z,26.6493,-81.8810,2.07,13.09,1111122 
SCCF RECON,ioos:station:SCCF:53:1,2009-03-03T04:00:00Z,26.6493,-81.8810,2.02,13.35,1111122 
SCCF RECON,ioos:station:SCCF:53:1,2009-03-03T05:00:00Z,26.6493,-81.8810,1.98,13.95,1111122 
SCCF RECON,ioos:station:SCCF:53:1,2009-03-03T06:00:00Z,26.6493,-81.8810,1.93,14.49,1111122 
SCCF RECON,ioos:station:SCCF:53:1,2009-03-03T07:00:00Z,26.6493,-81.8810,1.89,14.3,1111122 
SCCF RECON,ioos:station:SCCF:53:1,2009-03-03T08:00:00Z,26.6493,-81.8810,1.851,14.82,1111122 
SCCF RECON,ioos:station:SCCF:53:1,2009-03-03T09:00:00Z,26.6493,-81.8810,1.83,13.84,1111122 
SCCF RECON,ioos:station:SCCF:53:1,2009-03-03T10:00:00Z,26.6493,-81.8810,1.83,14.53,1111122 
SCCF RECON,ioos:station:SCCF:53:1,2009-03-03T11:00:00Z,26.6493,-81.8810,1.863,14.04,1111122 
SCCF RECON,ioos:station:SCCF:53:1,2009-03-03T12:00:00Z,26.6493,-81.8810,1.9,13.55,1111122 
SCCF RECON,ioos:station:SCCF:53:1,2009-03-03T13:00:00Z,26.6493,-81.8810,1.93,13.47,1111122 
SCCF RECON,ioos:station:SCCF:53:1,2009-03-03T14:00:00Z,26.6493,-81.8810,1.95,13.61,1111122 
SCCF RECON,ioos:station:SCCF:53:1,2009-03-03T15:00:00Z,26.6493,-81.8810,1.94,13.52,1111122 
SCCF RECON,ioos:station:SCCF:53:1,2009-03-03T16:00:00Z,26.6493,-81.8810,1.91,12.8,1111122 
SCCF RECON,ioos:station:SCCF:53:1,2009-03-03T17:00:00Z,26.6493,-81.8810,1.905,14.39,1111122 
SCCF RECON,ioos:station:SCCF:53:1,2009-03-03T18:00:00Z,26.6493,-81.8810,1.92,13.71,1111122 
SCCF RECON,ioos:station:SCCF:53:1,2009-03-03T19:00:00Z,26.6493,-81.8810,1.945,13.98,1111122 
SCCF RECON,ioos:station:SCCF:53:1,2009-03-03T20:00:00Z,26.6493,-81.8810,1.985,13.63,1111122 
SCCF RECON,ioos:station:SCCF:53:1,2009-03-03T21:00:00Z,26.6493,-81.8810,2.036,13.9,1111122 
SCCF RECON,ioos:station:SCCF:53:1,2009-03-03T22:00:00Z,26.6493,-81.8810,2.09,14.52,1111122 
SCCF RECON,ioos:station:SCCF:53:1,2009-03-03T23:00:00Z,26.6493,-81.8810,2.14,14.07,1111122 
SCCF RECON,ioos:station:SCCF:53:1,2009-03-04T00:00:00Z,26.6493,-81.8810,2.181,14.3,1111122 
SCCF RECON,ioos:station:SCCF:53:1,2009-03-04T01:00:00Z,26.6493,-81.8810,2.206,14.36,1111122 
SCCF RECON,ioos:station:SCCF:53:1,2009-03-04T02:00:00Z,26.6493,-81.8810,2.18,14.18,1111122 
SCCF RECON,ioos:station:SCCF:53:1,2009-03-04T03:00:00Z,26.6493,-81.8810,2.144,13.55,1111122 
SCCF RECON,ioos:station:SCCF:53:1,2009-03-04T04:00:00Z,26.6493,-81.8810,2.091,12.3,1111122 
SCCF RECON,ioos:station:SCCF:53:1,2009-03-04T05:00:00Z,26.6493,-81.8810,2.04,11.75,1111122 
SCCF RECON,ioos:station:SCCF:53:1,2009-03-04T06:00:00Z,26.6493,-81.8810,1.991,11.4,1111122 
SCCF RECON,ioos:station:SCCF:53:1,2009-03-04T07:00:00Z,26.6493,-81.8810,1.944,11.43,1111122 
SCCF RECON,ioos:station:SCCF:53:1,2009-03-04T08:00:00Z,26.6493,-81.8810,1.91,11.45,1111122 
SCCF RECON,ioos:station:SCCF:53:1,2009-03-04T09:00:00Z,26.6493,-81.8810,1.87,11.26,1111122 
SCCF RECON,ioos:station:SCCF:53:1,2009-03-04T10:00:00Z,26.6493,-81.8810,1.837,10.67,1111122 
SCCF RECON,ioos:station:SCCF:53:1,2009-03-04T11:00:00Z,26.6493,-81.8810,1.82,10.77,1111122 
SCCF RECON,ioos:station:SCCF:53:1,2009-03-04T12:00:00Z,26.6493,-81.8810,1.81,10.96,1111122 
SCCF RECON,ioos:station:SCCF:53:1,2009-03-04T13:00:00Z,26.6493,-81.8810,1.8,10.89,1111122 
SCCF RECON,ioos:station:SCCF:53:1,2009-03-04T14:00:00Z,26.6493,-81.8810,1.837,11.03,1111122 
SCCF RECON,ioos:station:SCCF:53:1,2009-03-04T15:00:00Z,26.6493,-81.8810,1.876,11.21,1111122 
SCCF RECON,ioos:station:SCCF:53:1,2009-03-04T16:00:00Z,26.6493,-81.8810,1.89,11.75,1111122 
SCCF RECON,ioos:station:SCCF:53:1,2009-03-04T17:00:00Z,26.6493,-81.8810,1.92,12.3,1111122 
SCCF RECON,ioos:station:SCCF:53:1,2009-03-04T18:00:00Z,26.6493,-81.8810,1.945,14.17,1111122 
SCCF RECON,ioos:station:SCCF:53:1,2009-03-04T19:00:00Z,26.6493,-81.8810,1.97,14.99,1111122 
SCCF RECON,ioos:station:SCCF:53:1,2009-03-04T20:00:00Z,26.6493,-81.8810,2.004,15.23,1111122 
SCCF RECON,ioos:station:SCCF:53:1,2009-03-04T21:00:00Z,26.6493,-81.8810,2.051,15.72,1111122 
SCCF RECON,ioos:station:SCCF:53:1,2009-03-04T22:00:00Z,26.6493,-81.8810,2.109,16.27,1111122 
SCCF RECON,ioos:station:SCCF:53:1,2009-03-04T23:00:00Z,26.6493,-81.8810,2.17,16.18,1111122 
SCCF RECON,ioos:station:SCCF:53:1,2009-03-05T00:00:00Z,26.6493,-81.8810,2.22,16.09,1111122 
SCCF RECON,ioos:station:SCCF:53:1,2009-03-05T01:00:00Z,26.6493,-81.8810,2.27,16.03,1111122 
SCCF RECON,ioos:station:SCCF:53:1,2009-03-05T02:00:00Z,26.6493,-81.8810,2.29,16.13,1111122 
SCCF RECON,ioos:station:SCCF:53:1,2009-03-05T03:00:00Z,26.6493,-81.8810,2.25,16.17,1111122 
SCCF RECON,ioos:station:SCCF:53:1,2009-03-05T04:00:00Z,26.6493,-81.8810,2.2,16.08,1111122 
SCCF RECON,ioos:station:SCCF:53:1,2009-03-05T05:00:00Z,26.6493,-81.8810,2.15,16.22,1111122 
SCCF RECON,ioos:station:SCCF:53:1,2009-03-05T06:00:00Z,26.6493,-81.8810,2.11,16.45,1111122 
SCCF RECON,ioos:station:SCCF:53:1,2009-03-05T07:00:00Z,26.6493,-81.8810,2.06,16.5,1111122 
SCCF RECON,ioos:station:SCCF:53:1,2009-03-05T08:00:00Z,26.6493,-81.8810,2.01,16.33,1111122 
SCCF RECON,ioos:station:SCCF:53:1,2009-03-05T09:00:00Z,26.6493,-81.8810,1.96,16.28,1111122 
SCCF RECON,ioos:station:SCCF:53:1,2009-03-05T10:00:00Z,26.6493,-81.8810,1.92,15.9,1111122 
SCCF RECON,ioos:station:SCCF:53:1,2009-03-05T11:00:00Z,26.6493,-81.8810,1.9,15.39,1111122 
SCCF RECON,ioos:station:SCCF:53:1,2009-03-05T12:00:00Z,26.6493,-81.8810,1.898,14.84,1111122 
SCCF RECON,ioos:station:SCCF:53:1,2009-03-05T13:00:00Z,26.6493,-81.8810,1.92,14.3,1111122 
SCCF RECON,ioos:station:SCCF:53:1,2009-03-05T14:00:00Z,26.6493,-81.8810,1.96,14.42,1111122 
SCCF RECON,ioos:station:SCCF:53:1,2009-03-05T15:00:00Z,26.6493,-81.8810,1.991,14.76,1111122 
SCCF RECON,ioos:station:SCCF:53:1,2009-03-05T16:00:00Z,26.6493,-81.8810,2.02,14.7,1111122 
SCCF RECON,ioos:station:SCCF:53:1,2009-03-05T17:00:00Z,26.6493,-81.8810,2.04,14.68,1111122 
SCCF RECON,ioos:station:SCCF:53:1,2009-03-05T18:00:00Z,26.6493,-81.8810,2.046,15.03,1111122 
SCCF RECON,ioos:station:SCCF:53:1,2009-03-05T19:00:00Z,26.6493,-81.8810,2.042,15.14,1111122 
SCCF RECON,ioos:station:SCCF:53:1,2009-03-05T20:00:00Z,26.6493,-81.8810,2.053,16.15,1111122 
SCCF RECON,ioos:station:SCCF:53:1,2009-03-05T21:00:00Z,26.6493,-81.8810,2.09,16.36,1111122 
SCCF RECON,ioos:station:SCCF:53:1,2009-03-05T22:00:00Z,26.6493,-81.8810,2.124,16.35,1111122 
SCCF RECON,ioos:station:SCCF:53:1,2009-03-05T23:00:00Z,26.6493,-81.8810,2.171,16.88,1111122 
SCCF RECON,ioos:station:SCCF:53:1,2009-03-06T00:00:00Z,26.6493,-81.8810,2.23,17.04,1111122 
SCCF RECON,ioos:station:SCCF:53:1,2009-03-06T01:00:00Z,26.6493,-81.8810,2.289,17.24,1111122 
SCCF RECON,ioos:station:SCCF:53:1,2009-03-06T02:00:00Z,26.6493,-81.8810,2.34,17.51,1111122 
SCCF RECON,ioos:station:SCCF:53:1,2009-03-06T03:00:00Z,26.6493,-81.8810,2.37,17.97,1111122 
SCCF RECON,ioos:station:SCCF:53:1,2009-03-06T04:00:00Z,26.6493,-81.8810,2.37,18.08,1111122 
SCCF RECON,ioos:station:SCCF:53:1,2009-03-06T05:00:00Z,26.6493,-81.8810,2.32,17.98,1111122 
SCCF RECON,ioos:station:SCCF:53:1,2009-03-06T06:00:00Z,26.6493,-81.8810,2.26,17.77,1111122 
SCCF RECON,ioos:station:SCCF:53:1,2009-03-06T07:00:00Z,26.6493,-81.8810,2.21,17.8,1111122 
SCCF RECON,ioos:station:SCCF:53:1,2009-03-06T08:00:00Z,26.6493,-81.8810,2.15,17.97,1111122 
SCCF RECON,ioos:station:SCCF:53:1,2009-03-06T09:00:00Z,26.6493,-81.8810,2.09,18.02,1111122 
SCCF RECON,ioos:station:SCCF:53:1,2009-03-06T10:00:00Z,26.6493,-81.8810,2.041,17.99,1111122 
SCCF RECON,ioos:station:SCCF:53:1,2009-03-06T11:00:00Z,26.6493,-81.8810,2.0,18.19,1111122 
SCCF RECON,ioos:station:SCCF:53:1,2009-03-06T12:00:00Z,26.6493,-81.8810,1.97,18.25,1111122 
SCCF RECON,ioos:station:SCCF:53:1,2009-03-06T13:00:00Z,26.6493,-81.8810,1.96,17.99,1111122 
SCCF RECON,ioos:station:SCCF:53:1,2009-03-06T14:00:00Z,26.6493,-81.8810,1.97,17.26,1111122 
SCCF RECON,ioos:station:SCCF:53:1,2009-03-06T15:00:00Z,26.6493,-81.8810,2.005,17.25,1111122 
SCCF RECON,ioos:station:SCCF:53:1,2009-03-06T16:00:00Z,26.6493,-81.8810,2.042,16.77,1111122 
SCCF RECON,ioos:station:SCCF:53:1,2009-03-06T17:00:00Z,26.6493,-81.8810,2.079,16.26,1111122 
SCCF RECON,ioos:station:SCCF:53:1,2009-03-06T18:00:00Z,26.6493,-81.8810,2.105,16.67,1111122 
SCCF RECON,ioos:station:SCCF:53:1,2009-03-06T19:00:00Z,26.6493,-81.8810,2.125,17.87,1111122 
SCCF RECON,ioos:station:SCCF:53:1,2009-03-06T20:00:00Z,26.6493,-81.8810,2.128,18.6,1111122 
SCCF RECON,ioos:station:SCCF:53:1,2009-03-06T21:00:00Z,26.6493,-81.8810,2.13,18.59,1111122 
SCCF RECON,ioos:station:SCCF:53:1,2009-03-06T22:00:00Z,26.6493,-81.8810,2.15,17.91,1111122 
SCCF RECON,ioos:station:SCCF:53:1,2009-03-06T23:00:00Z,26.6493,-81.8810,2.185,18.61,1111122 
SCCF RECON,ioos:station:SCCF:53:1,2009-03-07T00:00:00Z,26.6493,-81.8810,2.22,19.06,1111122 
SCCF RECON,ioos:station:SCCF:53:1,2009-03-07T01:00:00Z,26.6493,-81.8810,2.27,19.41,1111122 
SCCF RECON,ioos:station:SCCF:53:1,2009-03-07T02:00:00Z,26.6493,-81.8810,2.32,19.88,1111122 
SCCF RECON,ioos:station:SCCF:53:1,2009-03-07T03:00:00Z,26.6493,-81.8810,2.364,20.1,1111122 
SCCF RECON,ioos:station:SCCF:53:1,2009-03-07T04:00:00Z,26.6493,-81.8810,2.4,21.23,1111122 
SCCF RECON,ioos:station:SCCF:53:1,2009-03-07T05:00:00Z,26.6493,-81.8810,2.4,20.52,1111122 
SCCF RECON,ioos:station:SCCF:53:1,2009-03-07T06:00:00Z,26.6493,-81.8810,2.35,20.32,1111122 
SCCF RECON,ioos:station:SCCF:53:1,2009-03-07T07:00:00Z,26.6493,-81.8810,2.29,19.74,1111122 
SCCF RECON,ioos:station:SCCF:53:1,2009-03-07T08:00:00Z,26.6493,-81.8810,2.23,19.61,1111122 
SCCF RECON,ioos:station:SCCF:53:1,2009-03-07T09:00:00Z,26.6493,-81.8810,2.17,19.77,1111122 
SCCF RECON,ioos:station:SCCF:53:1,2009-03-07T10:00:00Z,26.6493,-81.8810,2.12,19.9,1111122 
SCCF RECON,ioos:station:SCCF:53:1,2009-03-07T11:00:00Z,26.6493,-81.8810,2.07,20.09,1111122 
SCCF RECON,ioos:station:SCCF:53:1,2009-03-07T12:00:00Z,26.6493,-81.8810,2.02,19.92,1111122 
SCCF RECON,ioos:station:SCCF:53:1,2009-03-07T13:00:00Z,26.6493,-81.8810,1.99,19.94,1111122 
SCCF RECON,ioos:station:SCCF:53:1,2009-03-07T14:00:00Z,26.6493,-81.8810,1.98,19.61,1111122 
SCCF RECON,ioos:station:SCCF:53:1,2009-03-07T15:00:00Z,26.6493,-81.8810,2.0,19.61,1111122 
SCCF RECON,ioos:station:SCCF:53:1,2009-03-07T16:00:00Z,26.6493,-81.8810,2.04,18.7,1111122 
SCCF RECON,ioos:station:SCCF:53:1,2009-03-07T17:00:00Z,26.6493,-81.8810,2.08,17.12,1111122 
SCCF RECON,ioos:station:SCCF:53:1,2009-03-07T18:00:00Z,26.6493,-81.8810,2.104,19.21,1111122 
SCCF RECON,ioos:station:SCCF:53:1,2009-03-07T19:00:00Z,26.6493,-81.8810,2.129,19.77,1111122 
SCCF RECON,ioos:station:SCCF:53:1,2009-03-07T20:00:00Z,26.6493,-81.8810,2.136,19.16,1111122 
SCCF RECON,ioos:station:SCCF:53:1,2009-03-07T21:00:00Z,26.6493,-81.8810,2.126,19.58,1111122 
SCCF RECON,ioos:station:SCCF:53:1,2009-03-07T22:00:00Z,26.6493,-81.8810,2.12,19.85,1111122 
SCCF RECON,ioos:station:SCCF:53:1,2009-03-07T23:00:00Z,26.6493,-81.8810,2.127,20.31,1111122 
SCCF RECON,ioos:station:SCCF:53:1,2009-03-08T00:00:00Z,26.6493,-81.8810,2.16,19.78,1111122 
SCCF RECON,ioos:station:SCCF:53:1,2009-03-08T01:00:00Z,26.6493,-81.8810,2.21,20.17,1111122 
SCCF RECON,ioos:station:SCCF:53:1,2009-03-08T02:00:00Z,26.6493,-81.8810,2.26,20.49,1111122 
SCCF RECON,ioos:station:SCCF:53:1,2009-03-08T03:00:00Z,26.6493,-81.8810,2.31,20.48,1111122 
SCCF RECON,ioos:station:SCCF:53:1,2009-03-08T04:00:00Z,26.6493,-81.8810,2.361,20.72,1111122 
SCCF RECON,ioos:station:SCCF:53:1,2009-03-08T05:00:00Z,26.6493,-81.8810,2.41,20.7,1111122 
SCCF RECON,ioos:station:SCCF:53:1,2009-03-08T06:00:00Z,26.6493,-81.8810,2.43,20.52,1111122 
SCCF RECON,ioos:station:SCCF:53:1,2009-03-08T07:00:00Z,26.6493,-81.8810,2.39,21.12,1111122 
SCCF RECON,ioos:station:SCCF:53:1,2009-03-08T08:00:00Z,26.6493,-81.8810,2.32,20.37,1111122 
SCCF RECON,ioos:station:SCCF:53:1,2009-03-08T09:00:00Z,26.6493,-81.8810,2.26,20.52,1111122 
SCCF RECON,ioos:station:SCCF:53:1,2009-03-08T10:00:00Z,26.6493,-81.8810,2.2,20.79,1111122 
SCCF RECON,ioos:station:SCCF:53:1,2009-03-08T11:00:00Z,26.6493,-81.8810,2.15,20.73,1111122 
SCCF RECON,ioos:station:SCCF:53:1,2009-03-08T12:00:00Z,26.6493,-81.8810,2.1,20.68,1111122 
SCCF RECON,ioos:station:SCCF:53:1,2009-03-08T13:00:00Z,26.6493,-81.8810,2.053,21.08,1111122 
SCCF RECON,ioos:station:SCCF:53:1,2009-03-08T14:00:00Z,26.6493,-81.8810,2.021,21.06,1111122 
SCCF RECON,ioos:station:SCCF:53:1,2009-03-08T15:00:00Z,26.6493,-81.8810,2.016,20.77,1111122 
SCCF RECON,ioos:station:SCCF:53:1,2009-03-08T16:00:00Z,26.6493,-81.8810,2.042,20.07,1111122 
SCCF RECON,ioos:station:SCCF:53:1,2009-03-08T17:00:00Z,26.6493,-81.8810,2.08,18.1,1111122 
SCCF RECON,ioos:station:SCCF:53:1,2009-03-08T18:00:00Z,26.6493,-81.8810,2.129,19.85,1111122 
SCCF RECON,ioos:station:SCCF:53:1,2009-03-08T19:00:00Z,26.6493,-81.8810,2.16,20.65,1111122 
SCCF RECON,ioos:station:SCCF:53:1,2009-03-08T20:00:00Z,26.6493,-81.8810,2.186,20.19,1111122 
SCCF RECON,ioos:station:SCCF:53:1,2009-03-08T21:00:00Z,26.6493,-81.8810,2.177,19.56,1111122 
SCCF RECON,ioos:station:SCCF:53:1,2009-03-08T22:00:00Z,26.6493,-81.8810,2.139,18.45,1111122 
SCCF RECON,ioos:station:SCCF:53:1,2009-03-08T23:00:00Z,26.6493,-81.8810,2.108,18.33,1111122 
SCCF RECON,ioos:station:SCCF:53:1,2009-03-09T00:00:00Z,26.6493,-81.8810,2.079,18.56,1111122 
SCCF RECON,ioos:station:SCCF:53:1,2009-03-09T01:00:00Z,26.6493,-81.8810,2.08,19.41,1111122 
SCCF RECON,ioos:station:SCCF:53:1,2009-03-09T02:00:00Z,26.6493,-81.8810,2.13,20.22,1111122 
SCCF RECON,ioos:station:SCCF:53:1,2009-03-09T03:00:00Z,26.6493,-81.8810,2.19,20.65,1111122 
SCCF RECON,ioos:station:SCCF:53:1,2009-03-09T04:00:00Z,26.6493,-81.8810,2.255,20.81,1111122 
SCCF RECON,ioos:station:SCCF:53:1,2009-03-09T05:00:00Z,26.6493,-81.8810,2.32,20.23,1111122 
SCCF RECON,ioos:station:SCCF:53:1,2009-03-09T06:00:00Z,26.6493,-81.8810,2.37,20.57,1111122 
SCCF RECON,ioos:station:SCCF:53:1,2009-03-09T07:00:00Z,26.6493,-81.8810,2.399,19.97,1111122 
SCCF RECON,ioos:station:SCCF:53:1,2009-03-09T08:00:00Z,26.6493,-81.8810,2.36,20.64,1111122 
SCCF RECON,ioos:station:SCCF:53:1,2009-03-09T09:00:00Z,26.6493,-81.8810,2.3,19.92,1111122 
SCCF RECON,ioos:station:SCCF:53:1,2009-03-09T10:00:00Z,26.6493,-81.8810,2.25,20.1,1111122 
SCCF RECON,ioos:station:SCCF:53:1,2009-03-09T11:00:00Z,26.6493,-81.8810,2.19,20.35,1111122 
SCCF RECON,ioos:station:SCCF:53:1,2009-03-09T12:00:00Z,26.6493,-81.8810,2.14,20.47,1111122 
SCCF RECON,ioos:station:SCCF:53:1,2009-03-09T13:00:00Z,26.6493,-81.8810,2.096,20.67,1111122 
SCCF RECON,ioos:station:SCCF:53:1,2009-03-09T14:00:00Z,26.6493,-81.8810,2.05,20.55,1111122 
SCCF RECON,ioos:station:SCCF:53:1,2009-03-09T15:00:00Z,26.6493,-81.8810,2.029,20.71,1111122 
SCCF RECON,ioos:station:SCCF:53:1,2009-03-09T16:00:00Z,26.6493,-81.8810,2.055,20.8,1111122 
SCCF RECON,ioos:station:SCCF:53:1,2009-03-09T17:00:00Z,26.6493,-81.8810,2.099,20.19,1111122 
SCCF RECON,ioos:station:SCCF:53:1,2009-03-09T18:00:00Z,26.6493,-81.8810,2.138,19.87,1111122 
SCCF RECON,ioos:station:SCCF:53:1,2009-03-09T19:00:00Z,26.6493,-81.8810,2.186,20.94,1111122 
SCCF RECON,ioos:station:SCCF:53:1,2009-03-09T20:00:00Z,26.6493,-81.8810,2.219,20.84,1111122 
SCCF RECON,ioos:station:SCCF:53:1,2009-03-09T21:00:00Z,26.6493,-81.8810,2.221,21.07,1111122 
SCCF RECON,ioos:station:SCCF:53:1,2009-03-09T22:00:00Z,26.6493,-81.8810,2.189,19.09,1111122 
SCCF RECON,ioos:station:SCCF:53:1,2009-03-09T23:00:00Z,26.6493,-81.8810,2.147,18.94,1111122 
SCCF RECON,ioos:station:SCCF:53:1,2009-03-10T00:00:00Z,26.6493,-81.8810,2.11,18.06,1111122 
SCCF RECON,ioos:station:SCCF:53:1,2009-03-10T01:00:00Z,26.6493,-81.8810,2.07,17.79,1111122 
SCCF RECON,ioos:station:SCCF:53:1,2009-03-10T02:00:00Z,26.6493,-81.8810,2.05,19.03,1111122 
SCCF RECON,ioos:station:SCCF:53:1,2009-03-10T03:00:00Z,26.6493,-81.8810,2.1,19.52,1111122 
SCCF RECON,ioos:station:SCCF:53:1,2009-03-10T04:00:00Z,26.6493,-81.8810,2.16,19.85,1111122 
SCCF RECON,ioos:station:SCCF:53:1,2009-03-10T05:00:00Z,26.6493,-81.8810,2.21,20.28,1111122 
SCCF RECON,ioos:station:SCCF:53:1,2009-03-10T06:00:00Z,26.6493,-81.8810,2.27,20.64,1111122 
SCCF RECON,ioos:station:SCCF:53:1,2009-03-10T07:00:00Z,26.6493,-81.8810,2.33,20.56,1111122 
SCCF RECON,ioos:station:SCCF:53:1,2009-03-10T08:00:00Z,26.6493,-81.8810,2.35,20.73,1111122 
SCCF RECON,ioos:station:SCCF:53:1,2009-03-10T09:00:00Z,26.6493,-81.8810,2.31,20.58,1111122 
SCCF RECON,ioos:station:SCCF:53:1,2009-03-10T10:00:00Z,26.6493,-81.8810,2.26,19.99,1111122 
SCCF RECON,ioos:station:SCCF:53:1,2009-03-10T11:00:00Z,26.6493,-81.8810,2.202,19.87,1111122 
SCCF RECON,ioos:station:SCCF:53:1,2009-03-10T12:00:00Z,26.6493,-81.8810,2.15,20.07,1111122 
SCCF RECON,ioos:station:SCCF:53:1,2009-03-10T13:00:00Z,26.6493,-81.8810,2.1,20.19,1111122 
SCCF RECON,ioos:station:SCCF:53:1,2009-03-10T14:00:00Z,26.6493,-81.8810,2.058,20.25,1111122 
SCCF RECON,ioos:station:SCCF:53:1,2009-03-10T15:00:00Z,26.6493,-81.8810,2.02,20.07,1111122 
SCCF RECON,ioos:station:SCCF:53:1,2009-03-10T16:00:00Z,26.6493,-81.8810,2.03,20.22,1111122 
SCCF RECON,ioos:station:SCCF:53:1,2009-03-10T17:00:00Z,26.6493,-81.8810,2.08,20.02,1111122 
SCCF RECON,ioos:station:SCCF:53:1,2009-03-10T18:00:00Z,26.6493,-81.8810,2.119,19.36,1111122 
SCCF RECON,ioos:station:SCCF:53:1,2009-03-10T19:00:00Z,26.6493,-81.8810,2.166,20.08,1111122 
SCCF RECON,ioos:station:SCCF:53:1,2009-03-10T20:00:00Z,26.6493,-81.8810,2.215,20.11,1111122 
SCCF RECON,ioos:station:SCCF:53:1,2009-03-10T21:00:00Z,26.6493,-81.8810,2.23,20.09,1111122 
SCCF RECON,ioos:station:SCCF:53:1,2009-03-10T22:00:00Z,26.6493,-81.8810,2.2,18.9,1111122 
SCCF RECON,ioos:station:SCCF:53:1,2009-03-10T23:00:00Z,26.6493,-81.8810,2.16,18.12,1111122 
SCCF RECON,ioos:station:SCCF:53:1,2009-03-11T00:00:00Z,26.6493,-81.8810,2.113,17.55,1111122 
SCCF RECON,ioos:station:SCCF:53:1,2009-03-11T01:00:00Z,26.6493,-81.8810,2.07,17.29,1111122 
SCCF RECON,ioos:station:SCCF:53:1,2009-03-11T02:00:00Z,26.6493,-81.8810,2.03,17.96,1111122 
SCCF RECON,ioos:station:SCCF:53:1,2009-03-11T03:00:00Z,26.6493,-81.8810,2.02,18.52,1111122 
SCCF RECON,ioos:station:SCCF:53:1,2009-03-11T04:00:00Z,26.6493,-81.8810,2.07,19.23,1111122 
SCCF RECON,ioos:station:SCCF:53:1,2009-03-11T05:00:00Z,26.6493,-81.8810,2.13,19.39,1111122 
SCCF RECON,ioos:station:SCCF:53:1,2009-03-11T06:00:00Z,26.6493,-81.8810,2.18,19.62,1111122 
SCCF RECON,ioos:station:SCCF:53:1,2009-03-11T07:00:00Z,26.6493,-81.8810,2.24,19.52,1111122 
SCCF RECON,ioos:station:SCCF:53:1,2009-03-11T08:00:00Z,26.6493,-81.8810,2.3,19.83,1111122 
SCCF RECON,ioos:station:SCCF:53:1,2009-03-11T09:00:00Z,26.6493,-81.8810,2.32,19.61,1111122 
SCCF RECON,ioos:station:SCCF:53:1,2009-03-11T10:00:00Z,26.6493,-81.8810,2.29,19.83,1111122 
SCCF RECON,ioos:station:SCCF:53:1,2009-03-11T11:00:00Z,26.6493,-81.8810,2.24,18.53,1111122 
SCCF RECON,ioos:station:SCCF:53:1,2009-03-11T12:00:00Z,26.6493,-81.8810,2.19,18.53,1111122 
SCCF RECON,ioos:station:SCCF:53:1,2009-03-11T13:00:00Z,26.6493,-81.8810,2.148,19.13,1111122 
SCCF RECON,ioos:station:SCCF:53:1,2009-03-11T14:00:00Z,26.6493,-81.8810,2.102,19.39,1111122 
SCCF RECON,ioos:station:SCCF:53:1,2009-03-11T15:00:00Z,26.6493,-81.8810,2.061,19.16,1111122 
SCCF RECON,ioos:station:SCCF:53:1,2009-03-11T16:00:00Z,26.6493,-81.8810,2.066,19.09,1111122 
SCCF RECON,ioos:station:SCCF:53:1,2009-03-11T17:00:00Z,26.6493,-81.8810,2.117,19.58,1111122 
SCCF RECON,ioos:station:SCCF:53:1,2009-03-11T18:00:00Z,26.6493,-81.8810,2.157,19.44,1111122 